Location: Appeville
(49.3218°N, 1.3427°W)
Time: 01:29:13
(UTC+00:00)

Cosmos 2266 Rocket - Pass Details

Date: 08 December 2019
Orbit: 933 x 1009 km, 82.9° (Epoch: 27 January)

Event Time Altitude Azimuth Distance (km) Brightness Sun altitude
Rises 06:45:59 0° 349° (N) 3,712 6.7 -9.5°
Reaches altitude 10° 06:48:32 10° 349° (NNW) 2,749 6.0 -9.1°
Maximum altitude 06:54:50 80° 264° (W) 990 4.0 -8.2°
Drops below altitude 10° 07:00:58 10° 178° (S) 2,677 6.7 -7.3°
Sets 07:03:25 0° 177° (S) 3,609 7.4 -6.9°
